Terminal Aerodrome Forecast
Issued by NWS Grand Forks, ND

Home | Current Version | Previous Version | Text Only | Print | Product List | Glossary On
Versions: 1 2 3 4 5 6 7 8 9 10 11 12 13 14 15 16 17 18
000
FTUS43 KFGF 230532
TAFGFK
TAF
KGFK 230532Z 2306/2406 35004KT P6SM OVC015
     FM231600 16005KT P6SM OVC010
     FM232100 22005KT P6SM BKN015
     FM240200 27005KT P6SM BKN020=

USA.gov is the U.S. government's official web portal to all federal, state and local government web resources and services.